sat.trackr.live / text

‹ back to catalog

OPTUS D3

NORAD 35756 · 2009-044B

PAYLOAD ACTIVE UNKNOWN

§ Identity

Operator
Country
AUS
Launch date
2009-08-21
Launch site
FRGUI
Launch vehicle
Mass (kg)
RCS (m²)
6.31

Purposes: comms

External: N2YO · Heavens-Above · Gunter

§ Orbital elements

Epoch: 2026-05-25T02:46:20.902080Z

Period
1,436.10 min
Inclination
0.8533°
Eccentricity
0.0003405
Mean motion
1.00271730 rev/d
Perigee alt
35,772.3 km
Apogee alt
35,801.0 km
Semi-major
42,164.7 km
B*
0.0000e+0
RAAN
270.2936°
Arg perigee
149.7635°
Mean anomaly
20.3636°
Rev number
6,133

§ Raw data

OPTUS D31 35756U 09044B   26145.11551970 -.00000148  00000+0  00000+0 0  99922 35756   0.8533 270.2936 0003405 149.7635  20.3636  1.00271730 61337

JSON: /api/v1/satellites/35756 · /tle

For live sub-satellite position, see the globe view (requires WebGL).

§ Visibility from observer

Set your observer location to see the next 7 days of passes ≥ 10°. The values pass through the URL so the page stays shareable.

No JS? Fill the form by hand. The geolocation button needs JavaScript.